User: anonymous   Login
Location: Unspecified
(43.3830°N, 0.0000°E)
Time: 18:36:56
(UTC+00:00)
Language:

A-11 Canister half - Orbit

View from above orbital plane
View from above orbital plane
View from above satellite
View from above satellite

Ground track
Ground track

The orbit data is extracted from the following two-line orbital elements,

1    51U 60009C   19167.72758956 -.00000049  00000-0  35328-3 0  9992
2    51  47.2146  41.9748 0105188 151.8608 208.7917 12.18271726619374
Epoch (UTC): 16 June 2019 17:27:43
Eccentricity: 0.0105188
inclination: 47.2146°
perigee height: 1516 km
apogee height: 1684 km
right ascension of ascending node: 41.9748°
argument of perigee: 151.8608°
revolutions per day: 12.18271726
mean anomaly at epoch: 208.7917°
orbit number at epoch: 61937

The dashed part of the orbit path shows where the satellite is in the earth's shadow,  

DLR